Seattle Boeing, WA

5:35 PM PDT on October 19, 2017 (GMT -0700)
Boeing Field-King County International

Weather History for KBFI - March, 2012

Change the Weather History Date:

Saturday, March 3, 2012

  Actual Average Record
Temperature  
Mean Temperature 50 °F -  
Max Temperature 55 °F 48 °F 69 °F (1965)
Min Temperature 46 °F 37 °F 20 °F (1989)
Degree Days  
Heating Degree Days 14    
Moisture  
Dew Point 42 °F    
Average Humidity 76    
Maximum Humidity 87    
Minimum Humidity 64    
Precipitation  
Precipitation 0.00 in - - ()
Sea Level Pressure  
Sea Level Pressure 30.34 in    
Wind  
Wind Speed 10 mph (South)    
Max Wind Speed 16 mph    
Max Gust Speed 29 mph    
Visibility 10 miles    
Events      
Averages and records for this station are not official NWS values.
T = Trace of Precipitation, MM = Missing Value Source: NWS Daily Summary

Daily Weather History Graph

Daily Weather History Graph

Search for Another Location

Airport or City:

Trip Planner

Search our weather history database for the weather conditions in past years. The results will help you decide how hot, cold, wet, or windy it might be!

Date:

Astronomy

Mar. 03, 2012 Rise Set
Actual Time 6:44 AM PST 5:58 PM PST
Civil Twilight 6:13 AM PST 6:28 PM PST
Nautical Twilight 5:38 AM PST 7:04 PM PST
Astronomical Twilight 5:02 AM PST 7:40 PM PST
Moon 12:56 PM PST (3/3) 3:43 AM PST (3/3)
Length of Visible Light 12h 14m
Length of Day
11h 13m
Waxing Gibbous, 76% of the Moon is Illuminated
Mar 3
Waxing Gibbous
Mar 8
Full
Mar 14
Last Quarter
Mar 22
New
Mar 30
First Quarter

Hourly Weather History & Observations

Time (PST) Temp. Windchill Dew Point Humidity Pressure Visibility Wind Dir Wind Speed Gust Speed Precip Events Conditions
12:53 AM 46.4 °F 42.4 °F 41.0 °F 81% 30.33 in 10.0 mi SSE 8.1 mph - N/A   Overcast
1:35 AM 46.4 °F 41.5 °F 41.0 °F 81% 30.34 in 10.0 mi South 10.4 mph - N/A   Overcast
1:53 AM 46.0 °F 41.4 °F 42.1 °F 86% 30.34 in 10.0 mi SSE 9.2 mph - N/A   Overcast
2:53 AM 46.9 °F - 42.1 °F 83% 30.34 in 10.0 mi SSE 9.2 mph - N/A   Overcast
3:53 AM 46.4 °F 43.5 °F 42.8 °F 87% 30.33 in 10.0 mi SSE 5.8 mph - N/A   Overcast
4:53 AM 46.9 °F - 43.0 °F 86% 30.33 in 10.0 mi SSE 8.1 mph - N/A   Overcast
5:53 AM 46.9 °F - 43.0 °F 86% 30.32 in 10.0 mi Variable 6.9 mph 16.1 mph N/A   Overcast
6:53 AM 48.0 °F - 44.1 °F 86% 30.31 in 10.0 mi South 9.2 mph 21.9 mph N/A   Overcast
7:53 AM 48.0 °F - 44.1 °F 86% 30.31 in 10.0 mi SSW 10.4 mph 20.7 mph N/A   Overcast
8:53 AM 48.9 °F - 44.1 °F 83% 30.33 in 10.0 mi South 9.2 mph 18.4 mph N/A   Overcast
9:40 AM 51.8 °F - 44.6 °F 76% 30.33 in 10.0 mi South 11.5 mph - N/A   Mostly Cloudy
9:53 AM 51.1 °F - 44.1 °F 77% 30.33 in 10.0 mi South 11.5 mph 19.6 mph N/A   Mostly Cloudy
10:53 AM 52.0 °F - 43.0 °F 71% 30.34 in 10.0 mi South 10.4 mph 23.0 mph N/A   Clear
11:53 AM 53.1 °F - 43.0 °F 69% 30.35 in 10.0 mi SSW 10.4 mph 24.2 mph N/A   Mostly Cloudy
12:53 PM 55.0 °F - 43.0 °F 64% 30.35 in 10.0 mi South 11.5 mph 20.7 mph N/A   Scattered Clouds
1:53 PM 55.0 °F - 43.0 °F 64% 30.35 in 10.0 mi South 12.7 mph 21.9 mph N/A   Scattered Clouds
2:53 PM 54.0 °F - 42.1 °F 64% 30.35 in 10.0 mi South 10.4 mph 21.9 mph N/A   Partly Cloudy
3:53 PM 54.0 °F - 42.1 °F 64% 30.35 in 10.0 mi South 15.0 mph 23.0 mph N/A   Clear
4:53 PM 52.0 °F - 41.0 °F 66% 30.36 in 10.0 mi South 16.1 mph 28.8 mph N/A   Scattered Clouds
5:34 PM 51.8 °F - 41.0 °F 67% 30.35 in 10.0 mi South 16.1 mph 24.2 mph N/A   Mostly Cloudy
5:53 PM 50.0 °F - 41.0 °F 71% 30.35 in 10.0 mi South 16.1 mph 23.0 mph N/A   Scattered Clouds
6:53 PM 48.9 °F - 41.0 °F 74% 30.36 in 10.0 mi South 12.7 mph 26.5 mph N/A   Scattered Clouds
7:53 PM 48.0 °F - 41.0 °F 77% 30.37 in 10.0 mi South 12.7 mph 24.2 mph N/A   Scattered Clouds
8:53 PM 48.0 °F - 42.1 °F 80% 30.37 in 10.0 mi South 9.2 mph - N/A   Mostly Cloudy
9:53 PM 48.0 °F - 42.1 °F 80% 30.37 in 10.0 mi SSE 10.4 mph - N/A   Mostly Cloudy
10:53 PM 48.0 °F - 41.0 °F 77% 30.36 in 10.0 mi South 9.2 mph - N/A   Mostly Cloudy
11:53 PM 48.0 °F - 41.0 °F 77% 30.36 in 10.0 mi South 5.8 mph - N/A   Overcast